Mexicali, Mexico

7:03 AM PDT on May 25, 2017 (GMT -0700)
Gen Rodolfo Sanchez Taboada

Weather History for MMML - August, 2013

Change the Weather History Date:

Wednesday, August 21, 2013

  Actual Average Record
Temperature  
Mean Temperature 96 °F -  
Max Temperature 107 °F 100 °F 113 °F (1998)
Min Temperature 86 °F 74 °F 66 °F (2014)
Cooling Degree Days 32    
Growing Degree Days 46 (Base 50)    
Moisture  
Dew Point 61 °F    
Average Humidity 35    
Maximum Humidity 55    
Minimum Humidity 15    
Precipitation  
Precipitation 0.00 in - - ()
Sea Level Pressure  
Sea Level Pressure 29.77 in    
Wind  
Wind Speed 7 mph ()    
Max Wind Speed 14 mph    
Max Gust Speed -    
Visibility 10.0 miles    
Events      
Averages and records for this station are not official NWS values.
T = Trace of Precipitation, MM = Missing Value Source: Averaged Metar Reports

Daily Weather History Graph

Daily Weather History Graph

Search for Another Location

Airport or City:

Trip Planner

Search our weather history database for the weather conditions in past years. The results will help you decide how hot, cold, wet, or windy it might be!

Date:

Astronomy

Aug. 21, 2013 Rise Set
Actual Time 6:08 AM PDT 7:18 PM PDT
Civil Twilight 5:43 AM PDT 7:44 PM PDT
Nautical Twilight 5:12 AM PDT 8:14 PM PDT
Astronomical Twilight 4:41 AM PDT 8:45 PM PDT
Moon 7:37 PM PDT (8/21) 6:48 AM PDT (8/21)
Length of Visible Light 14h 00m
Length of Day
13h 09m
Full, 99% of the Moon is Illuminated
Aug 21
Full
Aug 28
Last Quarter
Sep 5
New
Sep 12
First Quarter
Sep 19
Full

Hourly Weather History & Observations

Time (PDT) Temp. Heat Index Dew Point Humidity Pressure Visibility Wind Dir Wind Speed Gust Speed Precip Events Conditions
12:43 AM 86.0 °F 87.3 °F 64.4 °F 48% 29.76 in 10.0 mi ESE 4.6 mph - N/A   Scattered Clouds
6:01 AM 86.0 °F 89.4 °F 68.0 °F 55% 29.76 in 10.0 mi ENE 6.9 mph - N/A   Mostly Cloudy
6:42 AM 86.0 °F 86.6 °F 62.6 °F 45% 29.77 in 10.0 mi ENE 6.9 mph - N/A   Mostly Cloudy
7:40 AM 89.6 °F 90.1 °F 62.6 °F 40% 29.79 in 10.0 mi East 6.9 mph - N/A   Mostly Cloudy
8:40 AM 91.4 °F 93.2 °F 64.4 °F 41% 29.80 in 10.0 mi East 9.2 mph - N/A   Mostly Cloudy
9:40 AM 95.0 °F 97.0 °F 64.4 °F 36% 29.81 in 10.0 mi SE 8.1 mph - N/A   Mostly Cloudy
10:47 AM 98.6 °F 100.0 °F 62.6 °F 30% 29.83 in 10.0 mi South 8.1 mph - N/A   Mostly Cloudy
11:42 AM 98.6 °F 100.0 °F 62.6 °F 30% 29.81 in 10.0 mi SE 9.2 mph - N/A   Mostly Cloudy
12:51 PM 100.4 °F - 50.0 °F 18% 29.80 in 10.0 mi South 9.2 mph - N/A   Mostly Cloudy
1:48 PM 104.0 °F - 50.0 °F 16% 29.78 in 10.0 mi East 13.8 mph - N/A   Scattered Clouds
2:47 PM 105.8 °F - 50.0 °F 15% 29.74 in 10.0 mi ESE 13.8 mph - N/A   Scattered Clouds
3:50 PM 107.6 °F 106.8 °F 55.4 °F 18% 29.72 in 10.0 mi SSE 9.2 mph - N/A   Mostly Cloudy
5:52 PM 100.4 °F 100.2 °F 59.0 °F 25% 29.71 in 10.0 mi SSE 11.5 mph - N/A   Mostly Cloudy
6:54 PM 98.6 °F 100.0 °F 62.6 °F 30% 29.72 in 10.0 mi SSE 11.5 mph - N/A   Mostly Cloudy
7:43 PM 95.0 °F 98.5 °F 66.2 °F 39% 29.75 in 10.0 mi SE 6.9 mph - N/A   Mostly Cloudy
8:43 PM 93.2 °F 94.9 °F 64.4 °F 38% 29.75 in 10.0 mi South 5.8 mph - N/A   Mostly Cloudy
9:46 PM 91.4 °F 93.2 °F 64.4 °F 41% 29.76 in 10.0 mi South 5.8 mph - N/A   Mostly Cloudy
10:54 PM 89.6 °F 89.5 °F 60.8 °F 38% 29.79 in 10.0 mi SE 5.8 mph - N/A   Mostly Cloudy
11:41 PM 86.0 °F 89.4 °F 68.0 °F 55% 29.78 in 10.0 mi ESE 10.4 mph - N/A   Mostly Cloudy